Hourly Weather Golanice

Today, 7 May, Friday

Time Temperature Precipitation Wind Pressure Humidity
00:00 +6°C° 0.2 mm 2 mps 744 mmHg 83%
01:00 +6°C° 0.2 mm 2 mps 744 mmHg 87%
02:00 +6°C° 0.5 mm 2 mps 743 mmHg 89%
03:00 +7°C° 0.5 mm 1 mps 743 mmHg 90%
04:00 +7°C° 0.5 mm 1 mps 743 mmHg 92%
05:00 +7°C° 0.2 mm 1 mps 743 mmHg 90%
06:00 +7°C° 0.2 mm 1 mps 743 mmHg 87%
07:00 +8°C° 0.2 mm 1 mps 744 mmHg 84%
08:00 +8°C° 0.3 mm 1 mps 744 mmHg 85%
09:00 +7°C° 0.3 mm 2 mps 744 mmHg 85%
10:00 +7°C° 0.3 mm 2 mps 745 mmHg 85%
11:00 +5°C° 0.7 mm 3 mps 745 mmHg 88%
12:00 +5°C° 0.7 mm 4 mps 746 mmHg 91%
13:00 +3°C° 0.7 mm 5 mps 746 mmHg 94%
14:00 +4°C° 0.3 mm 6 mps 747 mmHg 90%
15:00 +4°C° 0.3 mm 6 mps 747 mmHg 87%
16:00 +5°C° 0.3 mm 7 mps 748 mmHg 83%
17:00 +4°C° 0.1 mm 6 mps 748 mmHg 83%
18:00 +5°C° 0.1 mm 5 mps 749 mmHg 82%
19:00 +3°C° 0.1 mm 5 mps 749 mmHg 82%
20:00 +3°C° 0 mm 5 mps 750 mmHg 85%
21:00 +2°C° 0 mm 5 mps 750 mmHg 87%
22:00 +2°C° 0 mm 5 mps 751 mmHg 90%
23:00 +2°C° 0 mm 5 mps 751 mmHg 91%

Tomorrow, 8 May, Saturday

Time Temperature Precipitation Wind Pressure Humidity
00:00 +1°C° 0 mm 5 mps 752 mmHg 93%
01:00 +1°C° 0 mm 4 mps 752 mmHg 94%
02:00 0°C° 0 mm 4 mps 752 mmHg 95%
03:00 0°C° 0 mm 4 mps 753 mmHg 95%
04:00 0°C° 0 mm 4 mps 753 mmHg 95%
05:00 +1°C° 0 mm 4 mps 753 mmHg 91%
06:00 +3°C° 0 mm 4 mps 754 mmHg 86%
07:00 +3°C° 0 mm 5 mps 754 mmHg 81%
08:00 +6°C° 0 mm 5 mps 754 mmHg 73%
09:00 +7°C° 0 mm 5 mps 754 mmHg 65%
10:00 +9°C° 0 mm 6 mps 754 mmHg 56%
11:00 +10°C° 0 mm 5 mps 754 mmHg 52%
12:00 +10°C° 0 mm 5 mps 754 mmHg 49%
13:00 +12°C° 0 mm 5 mps 754 mmHg 45%
14:00 +12°C° 0 mm 4 mps 754 mmHg 44%
15:00 +13°C° 0 mm 4 mps 754 mmHg 43%
16:00 +13°C° 0 mm 3 mps 754 mmHg 42%
17:00 +12°C° 0 mm 3 mps 754 mmHg 49%
18:00 +10°C° 0 mm 2 mps 754 mmHg 55%
19:00 +10°C° 0 mm 1 mps 754 mmHg 61%
20:00 +8°C° 0 mm 2 mps 754 mmHg 65%
21:00 +7°C° 0 mm 2 mps 754 mmHg 68%
22:00 +5°C° 0 mm 3 mps 754 mmHg 72%
23:00 +5°C° 0 mm 3 mps 754 mmHg 74%

Day after tomorrow, 9 May, Sunday

Time Temperature Precipitation Wind Pressure Humidity
00:00 +5°C° 0 mm 4 mps 753 mmHg 77%
01:00 +4°C° 0 mm 4 mps 753 mmHg 79%
02:00 +4°C° 0 mm 4 mps 753 mmHg 77%
03:00 +4°C° 0 mm 4 mps 753 mmHg 76%
04:00 +4°C° 0 mm 4 mps 752 mmHg 74%
05:00 +5°C° 0 mm 4 mps 752 mmHg 73%
06:00 +7°C° 0 mm 4 mps 752 mmHg 72%
07:00 +9°C° 0 mm 5 mps 752 mmHg 71%
08:00 +12°C° 0 mm 5 mps 752 mmHg 66%
09:00 +14°C° 0 mm 5 mps 752 mmHg 62%
10:00 +16°C° 0 mm 5 mps 752 mmHg 58%
11:00 +17°C° 0 mm 5 mps 751 mmHg 56%
12:00 +19°C° 0 mm 5 mps 751 mmHg 55%
13:00 +20°C° 0 mm 6 mps 751 mmHg 53%
14:00 +20°C° 0 mm 6 mps 751 mmHg 57%
15:00 +21°C° 0 mm 6 mps 750 mmHg 60%
16:00 +21°C° 0 mm 6 mps 750 mmHg 63%
17:00 +19°C° 0 mm 6 mps 750 mmHg 65%
18:00 +17°C° 0 mm 6 mps 750 mmHg 67%
19:00 +15°C° 0 mm 6 mps 750 mmHg 69%
20:00 +14°C° 0 mm 6 mps 750 mmHg 67%
21:00 +14°C° 0 mm 6 mps 750 mmHg 66%
22:00 +13°C° 0 mm 6 mps 750 mmHg 64%
23:00 +11°C° 0 mm 6 mps 750 mmHg 67%

10 May, Monday

Time Temperature Precipitation Wind Pressure Humidity
00:00 +10°C° 0 mm 6 mps 750 mmHg 69%
01:00 +9°C° 0 mm 5 mps 750 mmHg 71%
02:00 +9°C° 0 mm 5 mps 749 mmHg 72%
03:00 +9°C° 0 mm 5 mps 749 mmHg 72%
04:00 +8°C° 0 mm 5 mps 749 mmHg 72%
05:00 +9°C° 0 mm 5 mps 749 mmHg 71%
06:00 +11°C° 0 mm 6 mps 749 mmHg 71%
07:00 +12°C° 0 mm 7 mps 749 mmHg 70%
08:00 +15°C° 0 mm 7 mps 749 mmHg 67%
09:00 +16°C° 0 mm 7 mps 749 mmHg 64%
10:00 +18°C° 0 mm 7 mps 749 mmHg 61%
11:00 +20°C° 0 mm 7 mps 749 mmHg 59%
12:00 +21°C° 0 mm 6 mps 748 mmHg 58%
13:00 +22°C° 0 mm 5 mps 748 mmHg 57%
14:00 +22°C° 0 mm 5 mps 749 mmHg 58%
15:00 +23°C° 0 mm 4 mps 749 mmHg 59%
16:00 +23°C° 0 mm 4 mps 749 mmHg 60%
17:00 +22°C° 0 mm 4 mps 749 mmHg 68%
18:00 +20°C° 0 mm 4 mps 749 mmHg 75%
19:00 +19°C° 0 mm 3 mps 749 mmHg 82%
20:00 +17°C° 0 mm 3 mps 749 mmHg 84%
21:00 +16°C° 0 mm 3 mps 749 mmHg 86%
22:00 +14°C° 0 mm 3 mps 749 mmHg 88%
23:00 +14°C° 0 mm 3 mps 749 mmHg 89%

11 May, Tuesday

Time Temperature Precipitation Wind Pressure Humidity
00:00 +13°C° 0 mm 4 mps 748 mmHg 90%
01:00 +13°C° 0 mm 4 mps 748 mmHg 91%
02:00 +13°C° 0 mm 4 mps 748 mmHg 90%
03:00 +13°C° 0 mm 4 mps 747 mmHg 89%
04:00 +13°C° 0 mm 4 mps 747 mmHg 88%
05:00 +14°C° 0 mm 4 mps 747 mmHg 85%
06:00 +15°C° 0 mm 5 mps 747 mmHg 82%
07:00 +16°C° 0 mm 5 mps 747 mmHg 79%
08:00 +17°C° 0 mm 5 mps 747 mmHg 74%
09:00 +20°C° 0 mm 5 mps 747 mmHg 70%
10:00 +21°C° 0 mm 5 mps 747 mmHg 65%
11:00 +22°C° 0 mm 5 mps 747 mmHg 64%
12:00 +23°C° 0 mm 5 mps 746 mmHg 62%
13:00 +23°C° 0 mm 5 mps 746 mmHg 61%
14:00 +23°C° 0 mm 5 mps 746 mmHg 63%
15:00 +23°C° 0 mm 5 mps 746 mmHg 65%
16:00 +23°C° 0 mm 5 mps 746 mmHg 68%
17:00 +22°C° 0 mm 5 mps 745 mmHg 72%
18:00 +21°C° 0 mm 4 mps 745 mmHg 76%
19:00 +19°C° 0 mm 4 mps 745 mmHg 81%
20:00 +19°C° 0 mm 4 mps 745 mmHg 81%
21:00 +18°C° 0 mm 4 mps 745 mmHg 81%
22:00 +17°C° 0 mm 3 mps 744 mmHg 81%
23:00 +17°C° 0 mm 4 mps 744 mmHg 80%

12 May, Wednesday

Time Temperature Precipitation Wind Pressure Humidity
00:00 +15°C° 0 mm 4 mps 744 mmHg 79%
01:00 +15°C° 0 mm 4 mps 744 mmHg 78%
02:00 +15°C° 0 mm 4 mps 743 mmHg 78%
03:00 +15°C° 0 mm 5 mps 743 mmHg 78%
04:00 +15°C° 0 mm 5 mps 743 mmHg 78%
05:00 +16°C° 0 mm 5 mps 743 mmHg 77%
06:00 +16°C° 0 mm 5 mps 743 mmHg 77%
07:00 +17°C° 0 mm 5 mps 743 mmHg 76%
08:00 +20°C° 0 mm 5 mps 743 mmHg 72%
09:00 +21°C° 0 mm 5 mps 743 mmHg 68%
10:00 +23°C° 0 mm 5 mps 743 mmHg 64%
11:00 +23°C° 0 mm 6 mps 743 mmHg 62%
12:00 +24°C° 0 mm 6 mps 742 mmHg 60%
13:00 +26°C° 0 mm 6 mps 742 mmHg 58%
14:00 +25°C° 0.3 mm 5 mps 742 mmHg 61%
15:00 +25°C° 0.3 mm 4 mps 742 mmHg 65%
16:00 +25°C° 0.3 mm 4 mps 741 mmHg 68%
17:00 +21°C° 1.6 mm 4 mps 741 mmHg 77%
18:00 +19°C° 1.6 mm 4 mps 741 mmHg 86%
19:00 +17°C° 1.6 mm 4 mps 742 mmHg 95%
20:00 +15°C° 1.7 mm 4 mps 742 mmHg 95%
21:00 +15°C° 1.7 mm 4 mps 742 mmHg 96%
22:00 +14°C° 1.7 mm 4 mps 742 mmHg 96%
23:00 +14°C° 0.1 mm 4 mps 742 mmHg 96%
Show more